EW8845 Weather Reports


time (UTC)temp
C
wind
direction
speed
KPH
gust
KPH
rain 1hr
cm
rain 24hr
cm
rain mn
cm
humidity
%
barometer
mb
20260507101540 10 16 3.2 11.3 0.00 0.56 0.00 74 1014.7
20260507100012 10 43 3.2 14.5 0.00 0.56 0.00 74 1014.6
20260507094548 10 44 6.4 16.1 0.00 0.56 0.00 76 1014.5
20260507093023 10 54 3.2 8.0 0.00 0.56 0.00 77 1014.3
20260507091601 10 25 1.6 9.7 0.00 0.56 0.00 78 1014.3
20260507090037 10 35 1.6 14.5 0.00 0.56 0.00 78 1014.1
20260507084513 10 19 1.6 17.7 0.00 0.56 0.00 78 1013.8
20260507083046 9 68 6.4 14.5 0.00 0.56 0.00 78 1013.8
20260507081534 9 49 6.4 11.3 0.00 0.56 0.00 80 1013.7
20260507080100 9 59 0.0 9.7 0.00 0.56 0.00 82 1013.6
20260507074546 8 59 6.4 16.1 0.00 0.56 0.00 82 1013.4
20260507073001 8 19 6.4 16.1 0.00 0.56 0.00 83 1013.2
20260507071526 8 30 6.4 14.5 0.00 0.56 0.00 86 1013.1
20260507070003 8 360 0.0 4.8 0.00 0.56 0.00 88 1013.0
20260507064530 8 13 1.6 8.0 0.00 0.56 0.00 89 1013.0
20260507063005 7 347 0.0 9.7 0.00 0.56 0.00 89 1012.8
20260507061534 7 338 1.6 4.8 0.00 0.56 0.00 91 1012.7
20260507060006 7 333 0.0 6.4 0.00 0.56 0.00 91 1012.5
20260507054538 6 5 0.0 4.8 0.00 0.56 0.00 92 1012.5
20260507053008 6 18 1.6 8.0 0.00 0.56 0.00 92 1012.3
20260507051536 6 346 1.6 6.4 0.00 0.56 0.00 92 1012.2
20260507050024 6 350 0.0 4.8 0.00 0.56 0.00 92 1011.9
20260507044543 5 341 0.0 4.8 0.00 0.58 0.00 92 1011.7
20260507043011 5 343 1.6 8.0 0.00 0.58 0.00 92 1011.5
20260507041541 5 340 1.6 8.0 0.00 0.58 0.00 92 1011.4
20260507040013 5 336 1.6 4.8 0.00 0.58 0.00 93 1011.4
20260507034551 5 340 0.0 6.4 0.00 0.58 0.00 93 1011.2
20260507033021 5 331 1.6 4.8 0.00 0.58 0.00 93 1011.2
20260507031604 4 331 0.0 3.2 0.00 0.58 0.00 93 1011.0
20260507030027 4 330 0.0 4.8 0.00 0.58 0.00 92 1010.9
20260507024502 4 331 0.0 4.8 0.00 0.61 0.00 93 1010.8
20260507023038 4 331 0.0 1.6 0.00 0.61 0.00 92 1010.7
20260507021512 4 331 0.0 3.2 0.00 0.61 0.00 92 1010.7
20260507020050 5 331 0.0 3.2 0.00 0.61 0.00 92 1010.5
20260507014531 5 331 0.0 3.2 0.00 0.69 0.00 92 1010.5
20260507013058 5 331 0.0 3.2 0.00 0.69 0.00 92 1010.4
20260507011533 6 331 0.0 1.6 0.00 0.69 0.00 92 1010.3
20260507010007 6 331 0.0 3.2 0.00 0.69 0.00 92 1010.2
20260507004541 7 331 0.0 1.6 0.00 0.69 0.00 92 1010.1
20260507003015 7 331 0.0 3.2 0.00 0.69 0.00 92 1010.1
20260507001557 7 331 0.0 1.6 0.00 0.69 0.00 92 1009.9
20260507000035 7 331 0.0 3.2 0.00 0.69 0.00 92 1009.9
20260506234604 8 331 0.0 1.6 0.00 0.69 0.00 92 1009.8
20260506233042 8 329 0.0 4.8 0.00 0.69 0.00 92 1009.8
20260506231512 8 333 0.0 4.8 0.00 0.69 0.00 92 1009.8
20260506230040 8 326 1.6 6.4 0.00 0.69 0.00 92 1009.7
20260506224514 8 321 0.0 6.4 0.00 0.69 0.00 91 1009.6
20260506223043 8 317 0.0 3.2 0.00 0.69 0.00 91 1009.7
20260506221520 8 306 0.0 3.2 0.00 0.69 0.00 91 1009.6
20260506220055 8 332 0.0 6.4 0.00 0.69 0.00 91 1009.7
20260506214530 8 317 0.0 3.2 0.00 0.69 0.69 91 1009.5
20260506213005 8 321 0.0 1.6 0.00 0.69 0.69 90 1009.4
20260506211542 8 321 0.0 3.2 0.00 0.69 0.69 90 1009.3
20260506210016 8 319 0.0 4.8 0.00 0.69 0.69 90 1009.2
20260506204555 8 318 0.0 3.2 0.00 0.69 0.69 90 1009.1
20260506203029 8 312 0.0 1.6 0.00 0.69 0.69 90 1009.2
20260506201505 8 305 0.0 4.8 0.00 0.69 0.69 90 1009.1
20260506200043 8 315 0.0 3.2 0.00 0.69 0.69 90 1009.1
20260506194519 8 320 0.0 4.8 0.00 0.69 0.69 90 1009.1
20260506193104 8 313 0.0 4.8 0.00 0.69 0.69 89 1008.9
20260506191528 8 317 0.0 4.8 0.03 0.69 0.69 90 1008.9
20260506190003 8 319 0.0 3.2 0.03 0.69 0.69 90 1008.7
20260506184539 8 319 1.6 6.4 0.05 0.69 0.69 90 1008.6
20260506183015 8 325 0.0 4.8 0.05 0.69 0.69 90 1008.5
20260506181551 8 340 1.6 6.4 0.05 0.66 0.66 89 1008.3
20260506180027 8 5 0.0 3.2 0.08 0.66 0.66 89 1008.2
20260506174501 8 360 0.0 6.4 0.05 0.64 0.64 88 1008.1
20260506173040 8 345 3.2 8.0 0.05 0.61 0.61 88 1008.1
20260506171513 8 5 4.8 14.5 0.05 0.61 0.61 87 1008.0
20260506170104 8 347 1.6 8.0 0.03 0.58 0.58 87 1007.9
20260506164527 8 351 1.6 8.0 0.05 0.58 0.58 86 1007.9
20260506163003 8 346 0.0 6.4 0.05 0.56 0.56 86 1007.9
20260506161539 8 38 3.2 8.0 0.05 0.56 0.56 85 1007.9
20260506160020 8 15 1.6 6.4 0.05 0.56 0.56 84 1008.0
20260506154609 8 11 1.6 8.0 0.05 0.53 0.53 85 1008.0
20260506153029 8 360 1.6 9.7 0.05 0.51 0.51 85 1008.0
20260506151504 8 34 3.2 6.4 0.08 0.51 0.51 85 1008.0
20260506150041 8 355 1.6 12.9 0.08 0.51 0.51 84 1008.0
20260506144516 8 23 1.6 8.0 0.08 0.48 0.48 86 1007.9
20260506143104 8 11 0.0 6.4 0.05 0.46 0.46 86 1007.8
20260506141532 8 5 1.6 8.0 0.05 0.43 0.43 85 1007.9
20260506140003 8 344 1.6 14.5 0.05 0.43 0.43 85 1007.8
20260506134542 8 26 3.2 9.7 0.05 0.41 0.41 84 1007.9
20260506133015 8 20 6.4 14.5 0.08 0.41 0.41 85 1007.9
20260506131552 8 336 1.6 9.7 0.10 0.38 0.38 86 1007.9
20260506130030 8 355 1.6 9.7 0.10 0.36 0.36 85 1007.8
20260506124555 8 338 3.2 9.7 0.13 0.33 0.33 86 1007.7
20260506123034 8 347 0.0 16.1 0.13 0.33 0.33 85 1007.7
20260506121505 8 5 3.2 16.1 0.13 0.28 0.28 85 1007.6
20260506120041 8 27 4.8 12.9 0.13 0.25 0.25 84 1007.6
20260506114513 8 33 3.2 14.5 0.10 0.23 0.23 83 1007.3